267  
ASUS43 KOAX 131410  
RWRNE  
 
WEATHER ROUNDUP FOR NEBRASKA  
NATIONAL WEATHER SERVICE OMAHA NE  
900 AM CDT MON JUL 13 2020  
 
NOTES: SATELLITE DATA IS BEING USED TO AUGMENT CLOUD COVER ABOVE  
12000 FEET.  
"FAIR" INDICATES FEW OR NO CLOUDS BELOW 12,000 FEET WITH NO  
SIGNIFICANT WEATHER AND/OR S TO VISIBILITY
.  
 
 
NEZ001>004-019>022-054>056-131500-  
NEBRASKA PANHANDLE  
 
CITY SKY/WX TMP DP RH WIND PRES REMARKS
 
SCOTTSBLUFF PTSUNNY 70 51 51 SW6 29.91R  
ALLIANCE PTSUNNY 74 48 39 MISG 29.87S  
CHADRON SUNNY 76 52 43 NE13 29.88R  
GORDON FAIR 73 57 55 N23G29 29.86R  
KIMBALL MOSUNNY 75 41 28 NW8 29.99R  
SIDNEY N/A N/A N/A N/A MISG 29.91R  

 
 
NEZ057>060-069>072-079>082-131500-  
SOUTHWEST NEBRASKA  
 
CITY SKY/WX TMP DP RH WIND PRES REMARKS
 
NORTH PLATTE SUNNY 76 64 66 S9 29.85F  
IMPERIAL SUNNY 77 65 66 MISG 29.88S  
LEXINGTON SUNNY 74 63 67 S13G20 29.87S  
MCCOOK SUNNY 72 64 76 S7 29.87F  
OGALLALA SUNNY 74 64 69 S8 29.86R  

 
 
NEZ005>010-023>029-035>040-094-131500-  
NORTH CENTRAL NEBRASKA  
 
CITY SKY/WX TMP DP RH WIND PRES REMARKS
 
VALENTINE MOSUNNY 78 62 57 SW18G26 29.74R  
AINSWORTH MOSUNNY 73 66 79 SW20G26 29.78R  
BROKEN BOW SUNNY 73 64 73 MISG 29.84F  
O'NEILL SUNNY 74 62 65 S14G22 29.80F  
ORD SUNNY 73 63 70 S14 29.83F  
THEDFORD SUNNY 74 65 72 SW22G28 29.81S  

 
 
NEZ041-046>049-061>064-073>077-083>087-131500-  
SOUTH CENTRAL NEBRASKA  
 
CITY SKY/WX TMP DP RH WIND PRES REMARKS
 
GRAND ISLAND SUNNY 75 63 66 S13 29.87F  
AURORA SUNNY 74 66 76 S12 29.88S  
HASTINGS SUNNY 75 63 66 S9 29.88S  
HEBRON SUNNY 74 66 75 S10 29.89S  
HOLDREGE SUNNY 74 63 67 S13 29.89S  
KEARNEY SUNNY 74 64 71 S13 29.88S  
YORK SUNNY 73 68 83 SE13 29.88S  

 
 
NEZ011>018-030>034-042>045-131500-  
NORTHEAST NEBRASKA  
 
CITY SKY/WX TMP DP RH WIND PRES REMARKS
 
NORFOLK SUNNY 75 64 68 S14 29.86S  
ALBION SUNNY 72 66 82 S12G17 29.86S  
BLAIR SUNNY 75 66 73 S9 29.91F  
COLUMBUS SUNNY 75 66 73 S12 29.88S  
FREMONT SUNNY 76 68 77 SE12 29.89F  
TEKAMAH SUNNY 74 66 76 S9 29.89F  
WAYNE SUNNY 74 66 75 S13G23 29.85F  

 
 
NEZ050>053-065>068-078-088>093-131500-  
SOUTHEAST NEBRASKA  
 
CITY SKY/WX TMP DP RH WIND PRES REMARKS
 
LINCOLN SUNNY 75 64 68 S13 29.90S  
OMAHA EPPLEY MOSUNNY 78 64 61 S13 29.90F  
BEATRICE SUNNY 75 66 73 S10G18 29.90F  
FALLS CITY SUNNY 73 66 78 SE7 29.93S  
NEBRASKA CITY SUNNY 75 69 81 S10 29.93F  
PLATTSMOUTH SUNNY 75 66 73 SE8 29.92S  

 
 
NEZ044-045-051>053-067-131500-  
OMAHA AREA  
 
CITY SKY/WX TMP DP RH WIND PRES REMARKS
 
OMAHA EPPLEY MOSUNNY 78 64 61 S13 29.90F  
BLAIR SUNNY 75 66 73 S9 29.91F  
FREMONT SUNNY 76 68 77 SE12 29.89F  
MILLARD SUNNY 78 66 65 S9 29.91S  
OFFUTT AFB SUNNY 76 66 70 SE10 29.91F  
PLATTSMOUTH SUNNY 75 66 73 SE8 29.92S  
WAHOO FAIR 74 68 81 SE8 29.90F  

 
 
 
CLICK HERE TO GO TO PREVIOUS BULLETINS.

The Nexlab NE Page Main Text Page